Airfield :
LOGIN :

Register | Disclaimer

   EN    FR    IT 

 










Legend :    VFR   Marginal VFR   IFR   Intensive IFR   Very Intensive IFR
Visi :
Ceiling :
>= 8 km
>= 3000ft
5 to 8 km
1000 to 3000 ft
1500m to 5 km
500 to 1000 ft
800 to 1500m
200 to 500 ft
< 800m
< 200 ft
Symbols :   Thunderstorms  Fog  Heavy snow  Heavy precipitations  Wind > 20 kt
SIGMETs :     Misc.  Thunderstorms  Icing  Turbulence  Mountain Waves  Volcanic Ashes






- Airport Elevation : 681 ft
- IATA code : LBA


EGNM - Leeds Bradford

CURRENT METAR :
  • 071550Z 25014KT 9999 SCT042TCU 11/00 Q1014

EXPIRED METARs :
  • 071520Z 25012KT 9999 VCSH SCT042TCU 12/01 Q1014
  • 071450Z 25011KT 210V270 9999 VCSH SCT042TCU 10/01 Q1014
  • 071420Z 21007KT 180V240 9999 SCT042TCU 09/03 Q1014

TAF TAF EGNM
Valid from the 07 at 12:00 until the 08 at 12:00 UTC


071101Z 0712/0812 26008KT 9999 SCT030
TEMPO 0712/0717 6000 SHRA
BECMG 0805/0808 12012KT 6000 RA BKN012
TEMPO 0808/0812 13015G25KT 1200 +RA BKN006
ATIS : +44 113 250 9696 (x2489)



MET'MAP, your aeronautical weather chart ! - Copyright ORBIFLY December 2007 - Disclaimer

ORBIFLY MET'MAP TEAM :

Programming & Development : Alexandra Zaïnal
Concept & original design : Baudouin d'Aumeries
Assistance for programming : Marc-Olivier Méhu
Technical & hardware support : Manuel Goepfert

Contact : metmap@orbifly.com




SOURCES & CREDITS :

   NOAA